Weather History for Vancouver, WA

Change the Weather History Date:

Saturday, April 6, 2013

  Actual Average Record
Temperature  
Mean Temperature 51 °F 51 °F  
Max Temperature 56 °F 60 °F 82 °F (1906)
Min Temperature 45 °F 42 °F 29 °F (1911)
Degree Days  
Heating Degree Days 14    
Month to date heating degree days 57  
Since 1 July heating degree days 3620  
Cooling Degree Days 0    
Month to date cooling degree days 0  
Year to date cooling degree days 0  
Moisture  
Dew Point 44 °F    
Average Humidity 72    
Maximum Humidity 93    
Minimum Humidity 51    
Precipitation  
Precipitation 0.53 in 0.10 in 0.53 in (2013)
Month to date precipitation 1.05 0.63  
Year to date precipitation 7.19 13.73  
Snow  
Snow 0.00 in - - ()
Month to date snowfall 0.0  
Snow Depth 0.00 in    
Sea Level Pressure  
Sea Level Pressure 29.91 in    
Wind  
Wind Speed 7 mph (South)    
Max Wind Speed 16 mph    
Max Gust Speed 23 mph    
Visibility 9 miles    
Events Rain    
T = Trace of Precipitation, MM = Missing Value Source: NWS Daily Summary

Daily Weather History Graph

Daily Weather History Graph

Search for Another Location

Airport:

Trip Planner

Search our weather history database for the weather conditions in past years. The results will help you decide how hot, cold, wet, or windy it might be!

Date:

Astronomy

Apr. 06, 2013 Rise Set
Actual Time 6:40 AM PDT 7:45 PM PDT
Civil Twilight 6:10 AM PDT 8:16 PM PDT
Nautical Twilight 5:34 AM PDT 8:52 PM PDT
Astronomical Twilight 4:55 AM PDT 9:31 PM PDT
Moon 4:38 AM PDT (4/6) 4:11 PM PDT (4/6)
Length of Visible Light 14h 05m
Length of Day
13h 05m
Waning Crescent, 14% of the Moon is Illuminated
Apr 6
Waning Crescent
Apr 10
New
Apr 18
First Quarter
Apr 25
Full
May 2
Last Quarter

Hourly Weather History & Observations

Time (PDT) Temp. Windchill Dew Point Humidity Pressure Visibility Wind Dir Wind Speed Gust Speed Precip Events Conditions
12:53 AM 53.1 °F - 48.0 °F 83% 29.84 in 10.0 mi SSE 8.1 mph - 0.01 in   Overcast
1:44 AM 53.6 °F - 48.2 °F 82% 29.85 in 10.0 mi SSE 5.8 mph - 0.01 in Rain Light Rain
1:53 AM 53.1 °F - 48.9 °F 86% 29.86 in 10.0 mi South 6.9 mph - 0.01 in Rain Light Rain
2:53 AM 53.1 °F - 46.0 °F 77% 29.87 in 10.0 mi Variable 5.8 mph - N/A   Mostly Cloudy
3:53 AM 52.0 °F - 45.0 °F 77% 29.89 in 10.0 mi WSW 3.5 mph - N/A   Partly Cloudy
4:53 AM 51.1 °F - 45.0 °F 80% 29.91 in 10.0 mi Variable 4.6 mph - N/A   Partly Cloudy
5:53 AM 51.1 °F - 46.0 °F 83% 29.92 in 10.0 mi Variable 3.5 mph - N/A   Partly Cloudy
6:53 AM 51.1 °F - 43.0 °F 74% 29.94 in 7.0 mi SW 6.9 mph 20.7 mph 0.03 in Rain Light Rain
7:53 AM 51.1 °F - 43.0 °F 74% 29.94 in 10.0 mi SW 5.8 mph - 0.04 in   Overcast
8:53 AM 51.1 °F - 43.0 °F 74% 29.96 in 10.0 mi SW 5.8 mph - N/A   Mostly Cloudy
9:53 AM 52.0 °F - 42.1 °F 69% 29.98 in 10.0 mi SSW 8.1 mph 17.3 mph N/A   Scattered Clouds
10:53 AM 52.0 °F - 43.0 °F 71% 29.99 in 10.0 mi SSW 10.4 mph 16.1 mph N/A   Overcast
11:53 AM 54.0 °F - 42.1 °F 64% 30.00 in 10.0 mi Variable 6.9 mph - N/A   Overcast
12:53 PM 54.0 °F - 41.0 °F 62% 30.01 in 10.0 mi SW 9.2 mph 18.4 mph 0.00 in Rain Light Rain
1:53 PM 55.9 °F - 42.1 °F 60% 29.99 in 10.0 mi WSW 8.1 mph - 0.00 in   Overcast
2:53 PM 52.0 °F - 44.1 °F 74% 30.00 in 10.0 mi West 6.9 mph - 0.00 in   Overcast
3:53 PM 55.0 °F - 37.9 °F 53% 29.99 in 10.0 mi West 10.4 mph 17.3 mph N/A   Overcast
4:53 PM 55.0 °F - 37.9 °F 53% 29.96 in 10.0 mi SW 4.6 mph - N/A   Overcast
5:53 PM 51.1 °F - 41.0 °F 68% 29.97 in 3.0 mi West 5.8 mph - 0.04 in Rain Light Rain
6:30 PM 48.2 °F - 42.8 °F 82% 29.96 in 4.0 mi WSW 3.5 mph - 0.06 in Rain Light Rain
6:43 PM 48.2 °F - 42.8 °F 82% 29.96 in 5.0 mi Calm Calm - 0.08 in Rain Light Rain
6:53 PM 48.0 °F - 43.0 °F 83% 29.96 in 7.0 mi Calm Calm - 0.09 in Rain Light Rain
7:00 PM 48.2 °F - 42.8 °F 82% 29.95 in 7.0 mi Calm Calm - 0.01 in Rain Light Rain
7:53 PM 46.9 °F - 45.0 °F 93% 29.93 in 10.0 mi ESE 4.6 mph - 0.05 in Rain Light Rain
8:53 PM 46.9 °F - 45.0 °F 93% 29.90 in 7.0 mi ESE 5.8 mph - 0.05 in Rain Light Rain
9:53 PM 46.9 °F - 44.1 °F 90% 29.86 in 9.0 mi ESE 9.2 mph - 0.03 in Rain Light Rain
10:12 PM 46.4 °F 41.5 °F 44.6 °F 93% 29.84 in 7.0 mi ESE 10.4 mph - 0.03 in Rain Light Rain
10:43 PM 46.4 °F 41.5 °F 44.6 °F 93% 29.81 in 7.0 mi East 10.4 mph - 0.08 in Rain Light Rain
10:53 PM 46.0 °F 41.0 °F 44.1 °F 93% 29.80 in 9.0 mi East 10.4 mph - 0.09 in Rain Light Rain
11:48 PM 46.4 °F 41.9 °F 42.8 °F 87% 29.74 in 10.0 mi ESE 9.2 mph - 0.05 in Rain Light Rain
11:53 PM 46.0 °F 41.4 °F 43.0 °F 89% 29.73 in 10.0 mi ESE 9.2 mph - 0.05 in Rain Light Rain